Wind_Speed
25 23 21 17 12 6 7 12 9 2 19 32 16 4 3 5 3 11 11 14 13 12 11 10 9 9 8 6 4 3 3 3 2 2 2 4 5 6 7 7 8 8 9 9 10 10 10 10 11
29 27 24 19 12 9 2 8 11 7 18 9 6 8 4 4 6 9 10 10 11 11 11 10 9 7 6 6 4 3 2 2 1 2 3 5 7 8 9 9 9 9 9 9 9 10 11 12 12
31 30 27 23 17 11 9 9 10 7 1 10 5 5 6 5 3 6 4 4 5 7 8 9 9 9 7 5 5 4 3 2 4 5 6 7 9 10 9 10 10 11 12 12 13 13 14 15 16
30 30 29 25 22 16 7 17 2 14 6 8 12 9 9 9 4 7 5 6 5 6 6 6 6 6 5 6 6 5 5 5 6 7 8 9 10 11 11 12 13 14 14 15 16 16 16 16 17
32 30 29 26 23 18 10 9 23 21 10 20 16 14 12 12 7 7 5 7 5 7 8 8 8 8 9 8 8 8 8 8 10 10 11 11 11 11 12 13 14 15 15 16 17 17 18 19 19
35 34 31 27 25 16 14 4 20 25 32 15 18 16 15 10 10 11 6 8 9 9 10 10 10 10 10 9 10 10 10 11 12 13 14 14 14 15 15 15 15 16 16 17 18 18 19 20 21
38 38 31 30 30 25 16 3 22 30 36 30 19 17 18 12 15 13 11 12 14 12 11 11 12 12 12 12 12 13 14 15 16 15 14 13 12 13 14 15 16 16 17 18 19 20 22 23 24
45 42 36 34 31 28 12 1 25 32 40 31 27 20 18 16 20 18 16 15 15 12 12 14 15 15 15 15 15 15 15 14 13 13 14 14 15 15 16 16 16 17 17 18 20 21 22 24 25
41 47 41 36 33 26 10 7 21 27 35 33 29 19 15 18 24 23 20 17 14 13 11 11 13 16 16 15 13 12 12 13 14 14 15 16 16 15 17 15 15 16 17 18 18 18 19 18 19
46 42 40 37 30 34 21 14 23 27 35 40 33 22 17 21 26 29 28 23 16 9 11 11 9 12 11 11 11 12 13 14 14 15 16 16 16 17 18 17 16 17 17 17 17 16 15 14 15
42 44 33 43 39 39 27 19 19 30 35 41 38 31 20 23 28 29 30 28 22 13 11 11 12 14 13 13 12 13 15 15 17 17 18 18 19 17 16 18 18 16 16 15 14 12 13 14 12
45 41 36 43 39 45 37 22 24 26 32 37 40 36 30 26 28 28 32 29 22 14 15 15 15 16 14 15 16 17 17 19 19 19 21 20 20 19 17 15 15 16 15 14 13 13 13 13 13
47 39 34 37 46 47 44 33 35 23 28 38 42 36 33 28 30 28 33 35 22 16 16 20 19 18 19 19 18 18 20 18 22 21 21 21 20 20 19 18 15 14 14 14 13 16 14 13 14
45 43 37 38 36 34 40 41 34 36 25 38 43 37 29 30 30 32 34 33 27 21 20 24 23 21 22 22 21 22 21 21 22 22 22 22 21 20 21 19 18 17 15 14 15 15 16 17 17
47 46 45 42 37 38 41 43 44 33 37 38 42 39 27 26 27 32 34 34 30 25 25 28 25 25 24 23 23 23 22 22 22 23 23 23 24 23 23 21 19 19 19 18 19 18 18 18 18
54 50 49 46 42 41 49 40 41 45 43 45 48 42 33 31 32 34 35 35 32 29 29 31 27 29 27 26 26 25 23 22 22 23 23 25 25 25 26 25 22 23 23 23 23 23 23 23 22
50 55 51 47 43 45 43 44 38 44 51 54 54 47 37 36 37 37 35 35 34 32 32 32 32 31 30 27 27 25 23 23 23 25 25 26 26 27 27 26 25 26 27 27 26 26 26 26 26
44 54 52 51 43 44 47 49 36 40 47 47 50 47 42 44 44 42 39 36 36 34 37 34 34 35 31 30 28 25 24 24 24 27 27 27 28 28 29 28 28 29 29 31 29 30 31 31 31
38 40 44 49 52 54 50 49 40 37 43 46 49 49 49 46 44 42 42 38 36 34 38 36 36 37 32 31 29 27 25 25 26 29 29 29 29 29 30 31 32 32 32 33 33 34 36 37 36
37 40 44 42 46 33 34 45 47 36 38 42 45 46 49 47 50 47 42 40 36 33 38 36 35 34 33 32 29 28 25 26 26 29 31 31 31 31 32 34 35 36 37 37 36 36 38 40 40
38 40 39 40 37 30 26 29 36 42 52 40 44 48 46 45 44 40 43 40 35 31 34 36 35 35 34 33 31 30 28 28 28 29 31 33 33 34 35 36 37 38 38 38 39 39 39 40 42
38 38 36 39 38 42 34 37 30 30 40 43 38 46 48 46 48 39 43 44 32 30 36 38 37 37 37 35 34 34 32 32 32 31 33 34 34 35 35 36 38 38 38 39 39 38 39 39 40
37 34 35 39 42 46 48 46 40 37 44 36 33 45 50 50 50 44 41 39 35 31 35 39 39 39 39 38 37 37 36 36 35 34 34 36 36 37 36 36 36 37 39 39 40 40 39 38 38
35 35 41 43 43 40 44 49 48 55 52 47 38 41 44 45 43 45 46 42 40 34 34 37 40 41 41 40 39 39 39 39 38 37 38 39 39 39 38 37 37 38 39 39 39 40 40 40 39
34 40 39 39 39 46 42 46 50 49 50 42 29 29 40 39 34 39 45 46 43 36 36 38 40 40 42 42 41 39 41 42 41 40 40 40 41 41 41 41 40 41 41 42 41 41 42 42 41
38 41 34 42 43 44 44 44 44 41 45 40 36 32 33 34 34 36 43 46 47 42 37 36 38 37 40 42 45 42 43 42 41 41 41 42 43 43 43 43 44 44 44 44 44 44 45 45 45
38 34 34 36 36 42 40 37 41 26 20 30 42 41 36 38 42 46 48 39 36 41 41 39 39 41 41 41 45 45 42 42 43 43 44 45 45 46 46 46 46 47 47 47 46 46 46 47 47
33 28 35 36 39 37 41 38 37 26 22 33 41 45 42 42 48 51 52 49 47 45 45 44 43 43 41 36 43 44 44 44 45 45 46 47 48 47 46 46 47 47 48 49 50 49 49 49 49
39 35 43 42 36 37 38 36 28 30 18 34 37 41 45 48 51 51 52 52 49 52 46 45 46 44 41 41 46 45 45 45 45 46 46 45 46 47 46 46 47 47 48 48 48 49 50 50 51
47 37 37 43 46 45 40 40 36 40 34 37 34 42 52 55 54 55 55 54 51 56 51 48 46 44 43 45 45 42 42 42 42 43 43 44 44 45 46 44 43 46 50 52 53 54 54 55 55
Wind_Direction
210 211 203 203 182 98 14 328 318 87 132 130 152 202 275 165 162 147 171 153 157 159 158 154 152 152 152 144 137 131 128 121 118 98 63 40 30 25 19 13 14 15 14 11 11 8 6 0 1
212 213 213 197 183 114 267 289 314 138 112 108 193 232 275 215 165 174 182 167 170 171 171 168 168 175 167 156 156 162 139 106 67 23 7 5 2 359 355 351 351 352 350 347 348 350 351 350 350
215 215 215 205 181 160 56 264 227 121 313 95 254 258 251 260 168 174 214 186 202 203 197 197 197 199 199 191 189 196 217 259 296 313 323 328 329 331 331 336 341 341 340 342 341 341 342 342 342
222 214 217 206 171 176 72 306 223 151 187 207 222 246 238 246 220 194 195 232 221 237 244 245 244 242 244 239 237 249 271 280 290 295 301 306 309 314 318 322 326 327 328 330 331 332 333 333 333
222 218 212 205 176 170 138 252 288 323 244 212 231 236 241 240 229 220 144 241 232 251 254 256 257 263 268 274 274 272 275 282 280 283 285 289 294 300 303 305 306 305 311 313 313 316 317 317 319
220 221 209 201 178 161 97 348 282 282 290 261 234 238 220 230 212 206 165 239 233 240 247 252 258 263 268 272 275 279 280 281 284 286 289 293 297 300 303 305 306 312 314 315 315 314 313 313 313
217 221 209 200 186 179 122 295 260 280 282 269 234 234 224 227 238 221 214 232 243 248 255 257 249 250 258 266 273 278 282 284 286 290 296 303 305 304 302 302 307 311 311 312 311 313 314 313 313
213 218 209 201 204 189 155 2 274 270 275 275 242 224 224 241 249 247 235 240 248 251 260 260 258 257 258 263 267 271 276 282 285 289 295 297 299 305 303 309 310 309 310 311 312 314 313 314 313
237 215 209 204 206 195 147 163 262 264 270 264 252 214 231 246 257 248 241 237 256 264 271 274 263 253 255 257 257 261 268 275 283 291 293 298 304 306 303 307 310 311 313 314 319 318 322 321 320
236 231 211 206 206 196 165 155 248 253 257 262 264 222 229 249 252 249 241 232 218 262 290 273 259 258 248 252 259 268 275 280 286 291 300 305 307 309 311 312 312 313 314 318 321 326 329 332 332
235 235 227 206 205 201 171 169 210 255 249 262 266 252 245 256 261 259 250 235 220 225 262 272 278 260 261 264 270 272 278 289 291 303 302 309 308 311 305 306 309 310 313 318 325 330 331 334 336
234 238 228 216 201 215 185 183 199 232 251 260 266 265 249 254 262 268 267 252 230 241 267 280 269 258 261 275 284 289 295 291 296 299 302 305 306 303 298 295 300 309 314 322 328 334 333 333 335
229 237 229 236 210 206 195 194 202 216 255 256 258 258 248 251 259 264 269 263 266 265 280 281 279 281 269 268 272 277 280 286 292 297 301 303 303 301 300 304 304 306 312 319 325 326 325 331 334
226 226 225 225 243 220 204 191 202 214 218 251 254 253 237 243 251 259 263 271 274 274 282 280 282 282 276 273 278 279 284 288 290 297 302 305 306 304 301 301 300 304 307 305 311 317 322 328 329
226 228 226 226 222 233 230 207 214 208 230 244 259 259 249 241 251 259 266 270 273 277 280 277 281 279 278 276 277 278 281 288 293 298 301 303 305 306 301 300 298 305 305 307 310 312 312 316 319
228 229 233 230 231 227 230 229 214 221 232 246 254 256 257 256 254 255 260 268 273 276 277 277 280 279 279 275 276 277 281 286 290 293 298 301 303 302 300 300 300 298 301 303 305 305 306 309 311
235 233 235 237 233 234 242 237 223 225 232 241 249 254 255 260 261 259 258 262 267 269 270 273 272 273 273 270 271 276 281 284 288 292 295 298 299 297 295 296 296 294 295 299 302 302 303 302 304
236 237 237 235 233 237 244 237 233 224 229 228 244 252 254 254 254 254 253 256 261 264 266 268 267 271 269 264 267 272 279 282 287 287 289 291 293 293 293 292 289 287 288 288 291 295 295 295 295
235 234 236 237 236 249 247 242 236 227 232 240 248 255 255 254 260 259 258 257 259 262 263 262 261 263 259 259 264 269 276 282 285 284 285 286 287 289 291 291 289 286 283 285 287 290 292 293 294
237 236 237 237 235 231 252 257 256 237 231 240 246 252 256 258 257 259 260 257 257 254 257 258 256 252 250 254 260 267 276 281 284 284 284 284 285 286 288 290 290 290 288 285 286 287 288 290 292
239 237 236 241 239 218 234 242 247 238 237 234 249 247 249 255 257 258 259 261 256 248 252 252 249 246 248 253 260 267 274 279 283 286 286 287 287 287 289 291 291 290 289 290 290 290 290 292 294
233 237 237 241 233 218 222 233 223 233 245 254 237 248 252 254 261 258 255 255 248 242 243 247 243 243 248 254 261 267 272 278 281 283 284 284 286 289 289 289 288 288 288 288 290 289 290 290 291
242 231 225 231 242 228 218 226 220 229 242 247 243 245 246 247 257 271 264 257 248 239 242 245 243 245 250 255 263 270 274 277 280 283 284 284 284 283 285 287 289 291 293 293 292 292 291 290 290
244 244 233 232 239 238 233 231 242 225 241 246 250 243 244 255 258 259 261 258 252 242 242 245 246 249 254 259 266 273 276 279 282 285 284 285 286 288 289 289 290 289 290 290 290 291 291 291 291
236 244 244 236 229 239 238 227 240 239 243 247 236 233 235 243 254 253 258 257 255 248 241 241 247 253 260 264 266 272 277 280 284 284 285 285 286 287 288 288 289 290 289 288 288 290 291 291 292
230 239 244 239 238 246 237 238 237 248 250 248 227 229 236 243 252 256 251 254 254 251 248 244 245 253 263 270 271 271 276 280 280 280 281 283 284 286 287 288 290 290 289 290 291 292 292 292 292
250 241 244 247 249 250 249 244 239 239 239 233 227 233 230 236 234 239 259 257 259 255 253 250 248 249 253 260 268 273 274 274 276 279 281 283 284 285 286 288 289 290 291 291 291 291 291 291 290
239 239 227 236 243 241 244 242 245 225 252 247 225 233 229 236 245 252 261 267 266 258 255 254 254 255 257 261 266 270 271 274 276 279 280 282 284 286 287 289 290 291 292 292 292 291 290 290 290
230 239 224 232 238 240 241 233 216 214 214 230 238 231 239 240 242 248 255 261 261 263 259 257 260 264 266 265 265 267 270 273 275 277 279 280 282 285 289 291 291 292 293 293 294 294 294 294 293
229 237 222 226 228 237 244 247 215 213 241 226 224 227 230 230 233 238 245 250 252 260 267 266 263 262 260 259 264 266 268 270 273 274 276 280 284 286 288 289 292 296 296 297 297 297 297 296 293
Height
5914 5915 5916 5919 5927 5926 5922 5921 5913 5903 5910 5916 5928 5931 5931 5933 5937 5939 5937 5938 5940 5942 5943 5944 5946 5946 5947 5948 5949 5950 5950 5951 5951 5950 5950 5949 5949 5948 5947 5947 5946 5945 5944 5942 5941 5939 5938 5937 5936
5911 5913 5915 5918 5925 5924 5922 5916 5914 5912 5918 5928 5933 5933 5932 5934 5938 5939 5937 5939 5941 5943 5944 5944 5945 5946 5947 5948 5949 5950 5951 5951 5951 5951 5951 5950 5950 5949 5949 5948 5947 5945 5943 5942 5941 5939 5938 5936 5934
5907 5911 5914 5916 5921 5922 5921 5912 5914 5916 5921 5924 5934 5933 5934 5934 5938 5940 5938 5940 5941 5942 5944 5945 5945 5946 5947 5948 5949 5950 5950 5951 5951 5951 5951 5950 5950 5949 5948 5947 5946 5944 5943 5942 5941 5940 5938 5937 5935
5904 5908 5912 5915 5918 5920 5918 5900 5893 5913 5920 5927 5933 5933 5933 5935 5937 5939 5940 5939 5941 5942 5943 5944 5945 5946 5947 5947 5948 5949 5949 5950 5950 5950 5950 5950 5949 5948 5947 5946 5945 5944 5942 5941 5940 5938 5937 5935 5933
5900 5904 5908 5913 5918 5919 5919 5915 5914 5901 5918 5928 5932 5932 5932 5933 5936 5937 5943 5938 5941 5942 5943 5944 5945 5946 5947 5947 5947 5948 5948 5948 5949 5948 5948 5948 5947 5947 5946 5944 5943 5941 5940 5939 5937 5936 5934 5932 5931
5897 5899 5904 5910 5915 5916 5917 5922 5915 5919 5916 5923 5929 5931 5933 5931 5933 5937 5943 5939 5940 5941 5942 5943 5944 5944 5945 5945 5945 5946 5946 5946 5946 5946 5946 5946 5945 5945 5943 5942 5941 5940 5939 5937 5935 5934 5932 5930 5928
5893 5894 5902 5905 5910 5911 5912 5920 5922 5918 5914 5914 5921 5926 5930 5929 5929 5936 5940 5938 5938 5939 5941 5941 5941 5942 5942 5943 5943 5944 5944 5944 5944 5944 5943 5943 5943 5942 5942 5941 5940 5939 5937 5935 5933 5931 5929 5927 5925
5887 5887 5895 5900 5907 5911 5911 5914 5917 5915 5907 5910 5914 5920 5927 5927 5925 5930 5935 5936 5935 5937 5938 5939 5939 5940 5940 5940 5941 5941 5941 5941 5941 5941 5941 5941 5940 5940 5939 5938 5938 5936 5935 5933 5930 5928 5926 5925 5922
5876 5879 5890 5897 5901 5905 5905 5908 5917 5915 5904 5901 5907 5918 5925 5925 5921 5926 5930 5933 5933 5935 5936 5936 5937 5937 5937 5937 5938 5938 5939 5939 5939 5939 5939 5938 5938 5938 5936 5935 5934 5933 5931 5929 5928 5925 5923 5922 5919
5870 5877 5886 5893 5898 5894 5898 5901 5911 5909 5902 5899 5903 5914 5919 5920 5918 5918 5924 5930 5935 5932 5931 5932 5934 5934 5935 5935 5936 5936 5937 5937 5936 5936 5935 5936 5935 5935 5932 5932 5931 5929 5928 5926 5925 5923 5921 5919 5918
5866 5870 5881 5882 5889 5886 5892 5897 5900 5902 5901 5897 5898 5906 5912 5914 5912 5914 5917 5924 5931 5934 5932 5931 5931 5931 5932 5932 5933 5934 5934 5934 5933 5933 5932 5933 5931 5932 5931 5929 5927 5926 5924 5923 5922 5920 5919 5917 5916
5859 5864 5870 5879 5880 5881 5886 5890 5897 5894 5897 5896 5897 5900 5905 5908 5908 5910 5907 5912 5924 5929 5928 5928 5929 5929 5930 5929 5929 5929 5931 5929 5930 5930 5929 5929 5928 5928 5928 5927 5925 5923 5921 5920 5919 5918 5916 5915 5914
5853 5859 5864 5865 5867 5872 5878 5883 5889 5889 5889 5888 5890 5895 5900 5904 5905 5907 5902 5904 5916 5923 5923 5921 5922 5925 5926 5926 5927 5928 5928 5929 5925 5927 5926 5926 5925 5924 5922 5921 5921 5920 5919 5917 5916 5915 5914 5913 5912
5847 5851 5857 5860 5861 5865 5868 5877 5880 5888 5887 5881 5879 5887 5897 5900 5903 5902 5901 5901 5909 5915 5918 5916 5916 5919 5920 5921 5921 5922 5923 5924 5923 5923 5922 5921 5921 5920 5919 5918 5917 5916 5915 5915 5914 5913 5911 5909 5907
5840 5843 5847 5852 5859 5861 5864 5870 5872 5883 5880 5878 5877 5882 5891 5895 5897 5897 5898 5899 5904 5909 5912 5911 5913 5914 5915 5916 5917 5918 5918 5918 5918 5918 5917 5916 5916 5916 5916 5915 5913 5913 5911 5911 5910 5909 5908 5907 5905
5832 5835 5841 5850 5852 5858 5858 5865 5874 5877 5871 5872 5872 5877 5883 5887 5889 5891 5894 5897 5901 5904 5905 5904 5908 5908 5910 5911 5912 5913 5913 5914 5914 5913 5912 5912 5912 5912 5911 5911 5910 5909 5908 5907 5905 5905 5903 5902 5901
5826 5832 5836 5843 5846 5849 5850 5856 5869 5869 5868 5866 5864 5870 5878 5880 5881 5885 5890 5893 5897 5901 5901 5902 5902 5904 5904 5906 5906 5907 5908 5908 5909 5907 5908 5908 5908 5908 5907 5906 5906 5905 5904 5903 5902 5901 5899 5898 5897
5822 5823 5829 5834 5841 5840 5841 5845 5854 5858 5860 5859 5858 5864 5870 5871 5873 5877 5884 5888 5891 5894 5894 5898 5898 5897 5898 5900 5901 5902 5903 5903 5903 5903 5903 5903 5904 5903 5903 5902 5901 5901 5899 5899 5897 5896 5894 5893 5892
5813 5814 5818 5825 5833 5826 5829 5835 5842 5849 5850 5852 5854 5856 5860 5863 5864 5868 5874 5880 5884 5887 5886 5889 5890 5890 5892 5894 5895 5896 5897 5897 5897 5897 5898 5897 5898 5898 5897 5896 5896 5896 5894 5892 5891 5890 5888 5886 5886
5804 5807 5811 5818 5821 5820 5822 5826 5833 5835 5841 5845 5847 5849 5851 5855 5856 5860 5865 5871 5876 5878 5876 5879 5880 5882 5885 5888 5890 5890 5891 5891 5893 5892 5891 5891 5891 5891 5890 5889 5889 5889 5887 5885 5884 5883 5881 5879 5877
5796 5799 5804 5807 5813 5811 5814 5817 5820 5822 5826 5836 5839 5839 5841 5842 5846 5850 5854 5862 5866 5869 5868 5869 5871 5874 5878 5881 5882 5883 5884 5885 5887 5886 5884 5884 5885 5884 5883 5881 5880 5879 5879 5878 5876 5875 5873 5871 5867
5787 5794 5794 5796 5800 5803 5808 5805 5812 5817 5820 5822 5829 5830 5831 5832 5835 5842 5846 5852 5859 5861 5860 5861 5865 5868 5870 5873 5875 5875 5878 5879 5880 5880 5878 5878 5878 5877 5876 5875 5872 5870 5870 5869 5868 5867 5865 5863 5861
5778 5782 5784 5786 5787 5794 5797 5797 5806 5809 5810 5818 5823 5823 5822 5824 5827 5830 5836 5842 5848 5852 5852 5854 5858 5859 5861 5865 5867 5868 5869 5871 5871 5871 5870 5870 5870 5869 5869 5867 5866 5863 5860 5859 5859 5857 5855 5854 5853
5772 5772 5775 5776 5779 5779 5788 5795 5796 5798 5803 5809 5814 5817 5821 5822 5823 5823 5826 5830 5835 5842 5844 5847 5850 5851 5852 5856 5858 5858 5859 5860 5861 5862 5862 5862 5861 5859 5859 5859 5857 5855 5853 5852 5850 5848 5845 5843 5842
5762 5762 5764 5767 5767 5771 5784 5781 5784 5793 5796 5801 5803 5806 5811 5812 5814 5815 5817 5819 5824 5831 5835 5839 5842 5844 5843 5846 5848 5849 5849 5850 5851 5852 5852 5852 5851 5850 5850 5849 5846 5845 5843 5842 5840 5838 5835 5833 5832
5751 5754 5756 5756 5758 5764 5768 5766 5781 5787 5788 5792 5792 5795 5801 5804 5805 5806 5806 5808 5811 5820 5827 5831 5835 5837 5835 5834 5835 5841 5840 5841 5842 5843 5843 5842 5842 5841 5840 5838 5835 5833 5832 5830 5828 5826 5823 5822 5820
5745 5746 5749 5750 5753 5753 5757 5763 5771 5776 5777 5779 5782 5786 5788 5791 5793 5792 5793 5802 5802 5808 5818 5823 5825 5828 5829 5828 5826 5829 5832 5832 5832 5833 5833 5832 5831 5831 5829 5827 5825 5823 5821 5819 5817 5815 5812 5810 5808
5733 5738 5740 5738 5739 5741 5747 5753 5761 5765 5765 5768 5773 5775 5779 5782 5784 5785 5785 5788 5791 5796 5804 5810 5814 5817 5819 5820 5818 5819 5821 5822 5822 5823 5823 5821 5820 5819 5818 5816 5814 5812 5809 5806 5803 5801 5798 5797 5794
5722 5724 5726 5729 5731 5731 5736 5744 5757 5756 5758 5761 5762 5768 5772 5775 5777 5779 5780 5781 5777 5783 5791 5798 5802 5805 5807 5807 5808 5811 5811 5811 5812 5812 5811 5811 5809 5808 5807 5805 5802 5800 5797 5794 5791 5787 5784 5783 5780
5711 5713 5708 5713 5720 5723 5729 5736 5746 5745 5745 5750 5749 5749 5755 5761 5765 5768 5770 5771 5773 5774 5786 5789 5791 5793 5794 5796 5798 5800 5801 5802 5802 5801 5800 5800 5799 5797 5796 5793 5791 5788 5784 5780 5776 5773 5770 5768 5765